Regional Weather Roundup
Issued by NWS Goodland, KS

Home | Current Version | Previous Version | Graphics & Text | Print | Product List | Glossary On
Versions: 1 2 3 4 5 6 7 8 9 10 11 12 13 14 15 16 17 18 19 20 21 22 23 24 25 26 27 28 29 30 31 32 33 34 35 36 37 38 39 40 41 42 43 44 45 46 47 48 49 50
000
ASUS43 KGLD 021208
RWRGLD

GOODLAND FORECAST AREA HOURLY WEATHER ROUNDUP
NATIONAL WEATHER SERVICE GOODLAND KS
600 AM MDT THU JUL 02 2015

...OFFICIAL OBSERVATIONS...

CITY           SKY/WX    TMP DP  RH WIND       PRES   REMARKS
GOODLAND KS    CLOUDY    62  57  83 N20G31    30.10R
HILL CITY KS   PTCLDY    71  67  87 E5        29.95S FOG
IMPERIAL NEB   CLOUDY    61  57  87 NE12      30.07F
MCCOOK NEB     CLOUDY    65  58  78 N22G32    30.03F
AKRON CO       PTCLDY    59  52  77 NE17G25   30.18F
BURLINGTON CO  MOCLDY    62  55  77 NE23G33   30.14R
LIMON CO       MOCLDY    58  55  90 NE33G45   30.20R
$$

...UNOFFICIAL OBSERVATIONS...

CITY           SKY/WX    TMP DP  RH WIND       PRES   REMARKS
COLBY KS       CLOUDY    66  61  82 N24G31    30.08R
GOVE KS          N/A     68  32  26 MISG        N/A
NORTON KS      LGT RAIN  66  59  77 NW22G30   30.01
SHARON SPRINGS   N/A     67  62  85 NW12        N/A
KIT CARSON CO    N/A     62  59  89 MISG        N/A
YUMA CO          N/A     59  54  84 NE12        N/A
$$


USA.gov is the U.S. government's official web portal to all federal, state and local government web resources and services.